IRIDIUM 71 [-] (25320 NORAD) Tracking and Keplerian Element Data

This shows tracking and keplerian element data for the satellite.

Feedback or suggestion? Click here.




ElementValue
Catalog25320
NameIRIDIUM 71 [-]
Epoch Orbit8190
Epoch Day348.56730006
Epoch Year2018
RAAN11.9254
Inclination86.397
Eccentricity0.0002717
Argument of Perigee43.2984
Mean Anonmoly316.8427
Mean Motion14.39174496
Decay Rate5.9E-07
L11 25320U 98026B 18348.56730006 .00000059 00000-0 12713-4 0 9990
L22 25320 86.3970 11.9254 0002717 43.2984 316.8427 14.39174496 81903

Live tracking and technical data element details for IRIDIUM 71 [-] (NORAD 25320). IRIDIUM 71 [-] can be tracked NOW for your location showing map with azimuth and elevation plus other details from your city location.

Track the satellite on the map from your city or location and see movement details for azimuth, elevation, latitude, longitude, range, height, and movement on the map or in text.







IsCatalogInMostPopularTable: catalog: 25320, numindb: 48
Update: records affected: 1



GetName: 25320 IRIDIUM 71 [-]

Hit Count: updated at: Sat, 15 Dec 2018 19:43:27 GMT